User: anonymous   Login
Location: Long Point Provincial Park
(42.5794°N, 80.4103°W)
Time: 15:59:25
(UTC-04:00)
Language:

Iridium 19 - Orbit

View from above orbital plane
View from above orbital plane
View from above satellite
View from above satellite

Ground track
Ground track

The orbit data is extracted from the following two-line orbital elements,

1 24965U 97056A   14304.24721252  .00000827  00000-0  28833-3 0  9950
2 24965 086.3984 359.9557 0002346 109.1572 250.9878 14.34216535894968
Epoch (UTC): 31 October 2014 05:55:59
Eccentricity: 0.0002346
inclination: 86.3984°
perigee height: 776 km
apogee height: 779 km
right ascension of ascending node: 359.9557°
argument of perigee: 109.1572°
revolutions per day: 14.34216535
mean anomaly at epoch: 250.9878°
orbit number at epoch: 89496

The dashed part of the orbit path shows where the satellite is in the earth's shadow,  

DLR